Regional Weather Roundup
Issued by NWS Newport/Morehead, NC

Current Version | Previous Version | Graphics & Text | Print | Product List | Glossary Off
Versions: 1 2 3 4 5 6 7 8 9 10 11 12 13 14 15 16 17 18 19 20 21 22 23 24 25 26 27 28 29 30 31 32 33 34 35 36 37 38 39 40 41 42 43 44 45 46 47 48 49 50

219
ASUS42 KMHX 221114
RWRMHX
WEATHER ROUNDUP FOR EASTERN NORTH CAROLINA
NATIONAL WEATHER SERVICE NEWPORT/MOREHEAD CITY NC
700 AM EDT SAT JUL 22 2017

NOTE: "FAIR" INDICATES FEW OR NO CLOUDS BELOW 12,000 FEET
WITH NO SIGNIFICANT WEATHER AND/OR OBSTRUCTIONS TO VISIBILITY

NCZ015>017-031-032-045>047-102-103-221200-
NORTH COAST

CITY           SKY/WX    TMP DP  RH WIND       PRES   REMARKS
EDENTON        PTCLDY    80  75  84 SW8       29.95S
ELIZABETH CITY NOT AVBL
KITTY HAWK     SUNNY     79  74  83 CALM      29.94R
MANTEO         PTCLDY    78  74  87 W9        29.95S

$$

NCZ045>047-081-094-103-104-221200-
CENTRAL COAST

CITY           SKY/WX    TMP DP  RH WIND       PRES   REMARKS
FRISCO         CLEAR     77  74  90 SW10      29.98S

$$

NCZ095-097-098-100-101-221200-
SOUTHERN COAST

CITY           SKY/WX    TMP DP  RH WIND       PRES   REMARKS
BEAUFORT       CLEAR     81  78  91 SW12      29.99S
CEDAR ISLAND   NOT AVBL
JACKSONVILLE   PTCLDY    77  77 100 SW9       29.98S
PINEY ISLAND   SUNNY    N/A N/A N/A SW8       29.98R
WILMINGTON     CLEAR     78  77  96 SW7       30.00R


$$

NCZ011>013-027>030-043-044-078>080-089-090>093-098-221200-
COASTAL PLAIN

CITY           SKY/WX    TMP DP  RH WIND       PRES   REMARKS
AHOSKIE          N/A     75  73  95 S3        29.93S
CLINTON        CLEAR     75  75 100 SW3       29.99S
ELIZABETHTOWN  NOT AVBL
GOLDSBORO      CLEAR     77  77 100 S7        29.96R
GREENVILLE     CLEAR     77  73  88 SW6       29.98S
HAVELOCK       CLEAR     78  74  87 SW9       30.00R
KENANSVILLE    PTCLDY    75  73  94 SW3       29.99R
KINSTON        CLEAR     77  73  88 SW8       29.98R
NEW BERN       PTCLDY    77  75  93 SW8       29.99S
RICHLANDS      PTCLDY    76  75  97 SW9       29.99S
ROCKY MOUNT    CLEAR     76  75  97 SW6       29.95S
WASHINGTON     CLEAR     77  73  88 SW6       29.96F
WHITEVILLE     CLEAR     76  74  95 SW3       30.00R

$$

AMZ130-135-150-152-154-156-158-170-250-252-270-ANZ085-086-088-633-658-670-221200-
MARINE OBSERVATIONS

STATION/POSITION TIME  TEMP    WIND        PRES    WAVE   SWELL
                       AIR SEA DIR/SP/G            HT/PER HT/PER
                 (UTC) (F)     (DEG/KT/KT) (MB)    (FT/S) (FT/S)
CHESAPEAKE LIGHT NOT AVBL
64 E VA BEACH    1050   80 80  230/ 16/ 19 1013.2    4/ 6   2/10
DUCK             1048   80 58  230/ 14/ 18 1013.3
2 E DUCK         1100      61                N/A     2/10
OREGON INLET     1048          220/ 15/ 17   N/A
13E OREGON INLT  1048      80                N/A     3/10   2/10
HATTERAS CG      1048   77 78  240/  9/ 13 1015.1
DIAMOND BUOY     1050   82 84  250/ 19/ 21 1015.0    4/ 5   2/ 9
CAPE LOOKOUT     1100   81     230/ 11/ 16 1015.5
BEAUFORT LAB     1048   81 79  230/  5/ 11 1015.1
30 SE NEW RVR IN 1008   80 81  250/ 12/ 16 1016.0
30 SE NEW RVR IN 1043      81                N/A     4/10   2/11
27 SE WRIGHTSVLE 1008   81 81  240/ 12/ 16 1015.8
5 SE WRIGHTSVLE  1008   80 80  230/  8/ 12 1015.5
225 S CAPE HAT   1050   83 83  220/ 12/ 14 1018.1    4/10   3/10
41 SE CHARLESTON 1050   82 83  230/ 10/ 12 1016.0    3/ 9   2/ 9

$$




USA.gov is the U.S. government's official web portal to all federal, state and local government web resources and services.